Regional Weather Roundup
Issued by NWS

Home | Current Version | Previous Version | Graphics & Text | Print | Product List | Glossary Off
Versions: 1 2 3 4 5 6 7 8 9 10 11 12 13 14 15 16 17 18 19 20 21 22 23 24 25 26 27 28 29 30 31 32 33 34 35 36 37 38 39 40 41 42 43 44 45 46 47 48 49 50

336
ASUS43 KMKX 230320
RWRWI

WISCONSIN REGIONAL WEATHER ROUNDUP
NATIONAL WEATHER SERVICE MILWAUKEE/SULLIVAN WI
900 PM CST THU FEB 22 2018

NOTE: "FAIR" INDICATES FEW OR NO CLOUDS BELOW 12,000 FEET WITH NO
SIGNIFICANT WEATHER AND/OR OBSTRUCTIONS TO VISIBILITY.

WIZ001-002-006>008-014>016-023>028-230400-
NORTHWEST WISCONSIN

CITY           SKY/WX    TMP DP  RH WIND       PRES   REMARKS
SUPERIOR ARPT  LGT SNOW  23  22  94 NE3       30.37F VSB 1
ASHLAND        CLOUDY    20  14  77 CALM      30.39F
HAYWARD        LGT SNOW  27  21  78 E6        30.32F WCI  20
SIREN          LGT SNOW  26  21  82 E9        30.31F VSB 1   WCI  16
CUMBERLAND     SNOW      25  21  86 E10       30.28F VSB 1/2 WCI  15
RICE LAKE      LGT SNOW  25  24  94 E8        30.31F VSB 3/4 WCI  17
CHETEK         LGT SNOW  25  24  96 E9        30.31F VSB 3/4 WCI  15
LADYSMITH      LGT SNOW  26  24  91 E10       30.33F VSB 1   WCI  16
EAU CLAIRE     LGT SNOW  26  23  88 E12       30.29F FOG     WCI  16
MENOMONIE      LGT SNOW  27  25  92 E13       30.28F WCI  16
NEW RICHMOND   LGT SNOW  25  22  88 E10       30.27F WCI  15
OSCEOLA        LGT SNOW  26  26 100 E7        30.31F VSB 3/4 WCI  18
$$

WIZ003>005-009-010-017-018-230400-
NORTH CENTRAL WISCONSIN

CITY           SKY/WX    TMP DP  RH WIND       PRES   REMARKS
MANITOWISH WTR FLURRIES  28  13  53 E6        30.34F WCI  21
ARBOR VITAE    CLOUDY    29  17  59 SE9       30.35F WCI  21
WOODRUFF       CLOUDY    29  17  59 SE9       30.35F WCI  21
RHINELANDER    LGT SNOW  24  21  88 E10       30.36F VSB 1   WCI  14
EAGLE RIVER    CLOUDY    27  12  53 SE6       30.35F WCI  21
LAND O LAKES   LGT SNOW  27  17  65 SE6       30.36F WCI  21
PHILLIPS       LGT SNOW  24  22  93 E6        30.34F WCI  17
TOMAHAWK       LGT SNOW  24  20  87 E6        30.37F VSB 1   WCI  17
MEDFORD        LGT SNOW  23  21  92 E10       30.32F WCI  12
MERRILL        FLURRIES  25  22  91 E5        30.35F WCI  19
$$

WIZ029-030-035-036-043>047-230400-
CENTRAL WISCONSIN

CITY           SKY/WX    TMP DP  RH WIND       PRES   REMARKS
WAUSAU         FLURRIES  25  20  81 E7        30.35F WCI  17
MOSINEE        CLOUDY    27  19  74 E12       30.37F WCI  16
MARSHFIELD     LGT SNOW  26  20  77 E12       30.32F WCI  16
STEVENS POINT  CLOUDY    26  18  71 E12       30.37F WCI  15
WAUPACA        CLOUDY    31  22  70 E7        30.40F WCI  24
WAUTOMA        FLURRIES  29  24  82 E12       30.38F WCI  19
WISC RAPIDS    CLOUDY    28  18  66 E12G20    30.36F WCI  18
CAMP DOUGLAS   FRZ DRZL  28  27  93 E13       30.32F WCI  18
$$

WIZ011>013-019>022-031-037>040-048>050-230400-
NORTHEAST WISCONSIN

CITY           SKY/WX    TMP DP  RH WIND       PRES   REMARKS
ANTIGO         CLOUDY    23  19  85 E9        30.36F WCI  13
SHAWANO        CLOUDY    30  24  79 NE9       30.41F WCI  21
OCONTO         CLOUDY    29  24  82 NE7       30.44F WCI  22
STURGEON BAY   CLOUDY    32  27  81 E7        30.45F WCI  26
GREEN BAY      CLOUDY    30  24  78 NE14      30.42F WCI  19
MANITOWOC      CLOUDY    34  28  79 E10       30.42F WCI  26
APPLETON       CLOUDY    30  21  69 E14       30.39F WCI  20
CLINTONVILLE   CLOUDY    29  22  75 E8        30.40F WCI  21
OSHKOSH        CLOUDY    30  25  81 E8        30.40F WCI  22
$$

WIZ032>034-041-042-053>061-230400-
SOUTHWEST WISCONSIN

CITY           SKY/WX    TMP DP  RH WIND       PRES   REMARKS
LA CROSSE      CLOUDY    30  28  92 E6        30.30F FOG     WCI  24
SPARTA         MIX PCPN  28  27  95 E13       30.33F WCI  18
VIROQUA        CLOUDY    29  29 100 E16G23    30.25F WCI  17
BOSCOBEL       CLOUDY    33  31  92 E5        30.31F FOG     WCI  29
PRAIRIE DU CHI CLOUDY    32  31  94 E12       30.27F FOG     WCI  23
PLATTEVILLE    CLOUDY    32  32 100 E17       30.28F WCI  21
$$

WIZ056-057-062-063-064-067-068-230400-
SOUTH CENTRAL WISCONSIN

CITY           SKY/WX    TMP DP  RH WIND       PRES   REMARKS
REEDSBURG      DRIZZLE   30  30 100 E8        30.32F WCI  23
BARABOO/DELLS  MIX PCPN  30  29  96 E8        30.34F WCI  22
LONE ROCK      CLOUDY    32  31  96 E16       30.31F FOG     WCI  21
MINERAL POINT  CLOUDY    32  32 100 E10G18    30.29F WCI  24
MADISON        CLOUDY    31  29  92 E8        30.35F WCI  23
MIDDLETON      CLOUDY    32  32  99 E5        30.35F WCI  28
WATERTOWN      CLOUDY    32  30  92 E7        30.35F WCI  26
MONROE         CLOUDY    32  32 100 E9        30.30F WCI  24
JANESVILLE     CLOUDY    36  36 100 E8        30.32F WCI  29
$$

WIZ051-052-058>065-066-070>072-230400-
SOUTHEAST WISCONSIN

CITY           SKY/WX    TMP DP  RH WIND       PRES   REMARKS
MILWAUKEE      CLOUDY    37  30  75 E18       30.37F WCI  27
WAUKESHA       CLOUDY    32  27  80 E10       30.37F WCI  24
MILWAUKEE/TIMM CLOUDY    34  27  75 E8        30.38F WCI  27
RACINE         CLOUDY    36  31  82 E16       30.39F WCI  26
BURLINGTON     CLOUDY    36  29  77 E9G17     30.34F WCI  29
KENOSHA        CLOUDY    37  30  75 E15       30.35F WCI  28
FOND DU LAC    MIX PCPN  32  26  78 NE8       30.38F WCI  25
SHEBOYGAN      CLOUDY    34  29  82 E9        30.40F WCI  27
WEST BEND      CLOUDY    32  30  93 E10G16    30.37F WCI  24
JUNEAU         CLOUDY    31  28  87 E6        30.37F WCI  25
$$

LSZ147-162-230400-
LAKE SUPERIOR

STATION/POSITION TIME  TEMP    WIND        PRES    WAVE
                       AIR SEA DIR/SP/G            HT/PER
                 (UTC) (F)     (DEG/KT/KT) (MB)    (FT/S)
DEVILS ISLAND    0300   26      70/  9/ 11 1030.2F
SAXON HARBOR     0230   21     180/  2/  2 1029.1F
$$

LMZ867-665-643>646-230400-
LAKE MICHIGAN

STATION/POSITION TIME  TEMP    WIND        PRES    WAVE
                       AIR SEA DIR/SP/G            HT/PER
                 (UTC) (F)     (DEG/KT/KT) (MB)    (FT/S)
NORTHPORT PIER   0300   32                 1031.5
KEWAUNEE LAKESHO 0254   35      70/  6/ 11 1029.4F
SHEBOYGAN LAKESH 0300   35     100/ 13/ 14 1030.1F
PORT WASHINGTON  0240   36      90/ 13/ 15 1030.1F
MILWAUKEE LAKESH 0300   35      90/ 14/ 15   N/A
KENOSHA   LAKESH 0300   36     110/ 11/ 12 1027.8
$$

TC  - TEMPERATURE IN CELSIUS
VSB - VISIBILITY IN STATUTE MILES
WCI - WIND CHILL INDEX
HX  - HEAT INDEX





USA.gov is the U.S. government's official web portal to all federal, state and local government web resources and services.